Radiation Dose at Monitoring Post of Fukushima Daini Nuclear Power Station
Date,Time,MP-1(microSv/h),MP-2(microSv/h),MP-3(microSv/h),MP-4(microSv/h),MP-5(microSv/h),MP-6(microSv/h),MP-7(microSv/h),Wind Direction,Wind Velocity(m/s),Rain
2016/04/08,00:00,0.437,0.254,0.453,0.407,0.386,0.205,0.177,west,1.1,No
2016/04/08,00:10,0.440,0.256,0.460,0.405,0.385,0.205,0.179,northwest,2.1,No
2016/04/08,00:20,0.437,0.255,0.457,0.407,0.386,0.206,0.178,north-northwest,2.2,No
2016/04/08,00:30,0.440,0.255,0.457,0.404,0.386,0.205,0.177,north,2.8,No
2016/04/08,00:40,0.437,0.255,0.456,0.406,0.386,0.207,0.177,north-northwest,4.9,No
2016/04/08,00:50,0.440,0.254,0.459,0.403,0.386,0.206,0.177,north-northwest,4.7,No
2016/04/08,01:00,0.439,0.255,0.458,0.407,0.385,0.207,0.178,north-northwest,3.6,No
2016/04/08,01:10,0.440,0.254,0.455,0.405,0.389,0.206,0.177,north-northwest,6.1,No
2016/04/08,01:20,0.438,0.256,0.459,0.405,0.385,0.205,0.179,northwest,7.8,No
2016/04/08,01:30,0.441,0.254,0.456,0.405,0.389,0.206,0.178,northwest,8.1,No
2016/04/08,01:40,0.440,0.256,0.460,0.406,0.385,0.205,0.179,northwest,8.0,No
2016/04/08,01:50,0.440,0.255,0.457,0.407,0.389,0.206,0.178,northwest,9.2,No
2016/04/08,02:00,0.440,0.256,0.460,0.405,0.386,0.206,0.177,north-northwest,7.3,No
2016/04/08,02:10,0.440,0.255,0.457,0.408,0.387,0.206,0.179,northwest,8.2,No
2016/04/08,02:20,0.444,0.256,0.461,0.405,0.387,0.207,0.177,north-northwest,7.7,No
2016/04/08,02:30,0.439,0.256,0.458,0.407,0.389,0.206,0.178,northwest,4.4,No
2016/04/08,02:40,0.443,0.255,0.461,0.406,0.388,0.206,0.178,north-northwest,5.2,No
2016/04/08,02:50,0.440,0.257,0.459,0.407,0.386,0.207,0.178,north-northwest,4.8,No
2016/04/08,03:00,0.445,0.256,0.461,0.406,0.388,0.206,0.179,north-northwest,7.1,No
2016/04/08,03:10,0.439,0.256,0.458,0.406,0.385,0.206,0.178,northwest,8.9,No
2016/04/08,03:20,0.443,0.255,0.462,0.409,0.392,0.206,0.177,north-northwest,10.4,No
2016/04/08,03:30,0.439,0.257,0.459,0.407,0.385,0.207,0.179,north-northwest,10.7,No
2016/04/08,03:40,0.445,0.256,0.461,0.407,0.388,0.206,0.179,north-northwest,9.5,No
2016/04/08,03:50,0.441,0.256,0.460,0.406,0.387,0.207,0.180,north,7.6,No
2016/04/08,04:00,0.441,0.257,0.462,0.408,0.387,0.207,0.179,north-northeast,8.6,No
2016/04/08,04:10,0.443,0.255,0.462,0.406,0.388,0.206,0.178,north-northeast,11.8,No
2016/04/08,04:20,0.443,0.257,0.460,0.409,0.388,0.207,0.179,north,11.9,No
2016/04/08,04:30,0.445,0.257,0.463,0.408,0.390,0.206,0.180,north,11.6,No
2016/04/08,04:40,0.441,0.257,0.459,0.408,0.387,0.208,0.179,north,11.3,No
2016/04/08,04:50,0.446,0.256,0.464,0.408,0.389,0.206,0.179,north-northwest,10.8,No
2016/04/08,05:00,0.441,0.257,0.461,0.407,0.385,0.208,0.179,north-northwest,8.2,No
2016/04/08,05:10,0.443,0.256,0.461,0.410,0.388,0.206,0.179,north-northwest,8.6,No
2016/04/08,05:20,0.444,0.256,0.461,0.406,0.389,0.208,0.180,north-northwest,8.1,No
2016/04/08,05:30,0.443,0.258,0.460,0.407,0.387,0.208,0.180,north,7.9,No
2016/04/08,05:40,0.445,0.257,0.462,0.408,0.389,0.209,0.178,north-northwest,6.7,No
2016/04/08,05:50,0.441,0.256,0.461,0.408,0.386,0.207,0.180,north-northwest,7.3,No
2016/04/08,06:00,0.445,0.259,0.463,0.408,0.386,0.206,0.178,north-northwest,5.0,No
2016/04/08,06:10,0.441,0.255,0.460,0.405,0.391,0.208,0.178,north,6.2,No
2016/04/08,06:20,0.445,0.256,0.464,0.409,0.387,0.207,0.180,north-northwest,5.6,No
2016/04/08,06:30,0.442,0.256,0.458,0.409,0.388,0.208,0.179,north-northwest,5.3,No
2016/04/08,06:40,0.443,0.256,0.461,0.406,0.386,0.208,0.179,north-northwest,3.1,No
2016/04/08,06:50,0.443,0.257,0.461,0.409,0.386,0.207,0.180,north,3.5,No
2016/04/08,07:00,0.441,0.256,0.460,0.407,0.387,0.207,0.179,north-northwest,3.6,No
2016/04/08,07:10,0.444,0.257,0.463,0.410,0.386,0.207,0.180,north,3.9,No
2016/04/08,07:20,0.442,0.256,0.460,0.405,0.387,0.208,0.178,north,5.6,No
2016/04/08,07:30,0.445,0.256,0.463,0.408,0.386,0.208,0.177,north-northwest,5.5,No
2016/04/08,07:40,0.443,0.255,0.458,0.404,0.389,0.208,0.180,north,5.9,No
2016/04/08,07:50,0.445,0.258,0.465,0.409,0.385,0.209,0.178,north,6.1,No
2016/04/08,08:00,0.443,0.256,0.459,0.406,0.390,0.208,0.179,north,6.8,No
2016/04/08,08:10,0.446,0.258,0.464,0.409,0.387,0.208,0.179,north,7.9,No
2016/04/08,08:20,0.442,0.255,0.460,0.408,0.389,0.207,0.179,north,9.0,No
2016/04/08,08:30,0.444,0.258,0.463,0.406,0.385,0.209,0.180,north,10.5,No
2016/04/08,08:40,0.442,0.255,0.462,0.409,0.390,0.209,0.179,north,8.6,No
2016/04/08,08:50,0.445,0.258,0.463,0.408,0.385,0.208,0.181,north,9.6,No
2016/04/08,09:00,0.442,0.256,0.463,0.409,0.388,0.207,0.180,north,8.7,No
2016/04/08,09:10,0.446,0.259,0.465,0.405,0.388,0.209,0.180,north,8.1,No
2016/04/08,09:20,0.442,0.258,0.462,0.412,0.388,0.207,0.181,north-northwest,9.9,No
2016/04/08,09:30,0.445,0.258,0.464,0.408,0.388,0.209,0.179,north,7.4,No
2016/04/08,09:40,0.442,0.257,0.459,0.410,0.388,0.208,0.181,north,8.6,No
2016/04/08,09:50,0.444,0.258,0.465,0.410,0.390,0.209,0.181,north,6.4,No
2016/04/08,10:00,0.444,0.258,0.459,0.406,0.387,0.208,0.182,north,5.8,No
2016/04/08,10:10,0.443,0.257,0.467,0.411,0.389,0.208,0.179,north,6.5,No
2016/04/08,10:20,0.446,0.257,0.461,0.408,0.386,0.209,0.180,north,7.3,No
2016/04/08,10:30,0.443,0.257,0.464,0.408,0.389,0.208,0.181,north,6.0,No
2016/04/08,10:40,0.447,0.257,0.463,0.411,0.388,0.208,0.180,north-northeast,6.7,No
2016/04/08,10:50,0.442,0.257,0.462,0.407,0.387,0.209,0.181,north-northeast,7.0,No
2016/04/08,11:00,0.447,0.258,0.463,0.411,0.391,0.209,0.180,north-northeast,7.2,No
2016/04/08,11:10,0.444,0.256,0.460,0.409,0.386,0.209,0.181,northeast,8.0,No
2016/04/08,11:20,0.446,0.258,0.464,0.410,0.393,0.209,0.182,northeast,8.1,No
2016/04/08,11:30,0.446,0.256,0.461,0.413,0.390,0.208,0.182,northeast,7.4,No
2016/04/08,11:40,0.443,0.258,0.464,0.408,0.389,0.208,0.181,northeast,6.4,No
2016/04/08,11:50,0.446,0.258,0.463,0.410,0.390,0.210,0.181,northeast,6.7,No
2016/04/08,12:00,0.442,0.257,0.461,0.411,0.387,0.209,0.183,northeast,8.1,No
2016/04/08,12:10,0.447,0.258,0.466,0.407,0.391,0.209,0.180,northeast,8.0,No
2016/04/08,12:20,0.444,0.255,0.463,0.413,0.387,0.210,0.181,northeast,8.1,No
2016/04/08,12:30,0.448,0.258,0.462,0.408,0.391,0.207,0.182,north-northeast,8.4,No
2016/04/08,12:40,0.444,0.256,0.465,0.409,0.390,0.210,0.181,north-northeast,8.9,No
2016/04/08,12:50,0.446,0.259,0.460,0.413,0.387,0.209,0.182,northeast,7.9,No
2016/04/08,13:00,0.447,0.258,0.467,0.408,0.392,0.209,0.181,northeast,8.4,No
2016/04/08,13:10,0.445,0.259,0.464,0.413,0.388,0.208,0.182,north-northeast,8.8,No
2016/04/08,13:20,0.449,0.259,0.465,0.411,0.393,0.210,0.181,north-northeast,6.5,No
2016/04/08,13:30,0.446,0.259,0.466,0.414,0.388,0.211,0.184,north-northeast,7.6,No
2016/04/08,13:40,0.449,0.258,0.465,0.410,0.392,0.208,0.182,north-northeast,7.0,No
2016/04/08,13:50,0.446,0.259,0.468,0.411,0.388,0.211,0.183,north-northeast,7.5,No
2016/04/08,14:00,0.448,0.258,0.461,0.413,0.392,0.210,0.181,north-northeast,6.8,No
2016/04/08,14:10,0.445,0.257,0.467,0.409,0.390,0.210,0.182,north,3.4,No
2016/04/08,14:20,0.449,0.258,0.463,0.415,0.389,0.210,0.181,north-northeast,2.5,No
2016/04/08,14:30,0.444,0.259,0.468,0.411,0.389,0.208,0.183,north-northwest,3.6,No
2016/04/08,14:40,0.448,0.258,0.463,0.415,0.388,0.210,0.182,north-northwest,4.0,No
2016/04/08,14:50,0.445,0.257,0.467,0.410,0.393,0.208,0.183,north,5.0,No
2016/04/08,15:00,0.448,0.259,0.466,0.413,0.389,0.210,0.182,northwest,7.1,No
2016/04/08,15:10,0.444,0.258,0.465,0.413,0.391,0.210,0.182,north-northwest,6.7,No
2016/04/08,15:20,0.448,0.260,0.467,0.413,0.389,0.210,0.181,north-northwest,5.9,No
2016/04/08,15:30,0.446,0.257,0.463,0.414,0.391,0.208,0.182,north-northeast,4.5,No
2016/04/08,15:40,0.445,0.259,0.468,0.411,0.388,0.210,0.182,northeast,5.9,No
2016/04/08,15:50,0.448,0.258,0.463,0.414,0.390,0.211,0.182,north-northeast,5.5,No
2016/04/08,16:00,0.447,0.260,0.468,0.411,0.392,0.210,0.182,north-northeast,4.1,No
2016/04/08,16:10,0.448,0.259,0.465,0.414,0.388,0.210,0.183,east-northeast,3.1,No
2016/04/08,16:20,0.447,0.259,0.468,0.411,0.393,0.208,0.182,east-northeast,2.6,No
2016/04/08,16:30,0.448,0.259,0.465,0.414,0.387,0.210,0.182,east-southeast,3.4,No
2016/04/08,16:40,0.447,0.258,0.469,0.412,0.393,0.209,0.183,south-southeast,2.7,No
2016/04/08,16:50,0.448,0.260,0.465,0.415,0.391,0.210,0.182,south,3.3,No
2016/04/08,17:00,0.448,0.256,0.469,0.413,0.394,0.211,0.182,south,4.2,No
2016/04/08,17:10,0.448,0.259,0.466,0.413,0.392,0.210,0.182,south,4.5,No
2016/04/08,17:20,0.448,0.257,0.467,0.414,0.393,0.210,0.182,south,5.6,No
2016/04/08,17:30,0.446,0.259,0.466,0.412,0.393,0.210,0.183,south,6.2,No
2016/04/08,17:40,0.449,0.259,0.469,0.415,0.391,0.211,0.183,south,6.4,No
2016/04/08,17:50,0.446,0.259,0.467,0.413,0.392,0.210,0.182,south,6.3,No
2016/04/08,18:00,0.449,0.260,0.467,0.413,0.390,0.211,0.183,south,5.8,No
2016/04/08,18:10,0.446,0.259,0.467,0.415,0.393,0.210,0.182,south,7.8,No
2016/04/08,18:20,0.449,0.259,0.466,0.413,0.392,0.210,0.182,south,7.2,No
2016/04/08,18:30,0.447,0.259,0.469,0.416,0.391,0.211,0.182,south,8.7,No
2016/04/08,18:40,0.448,0.258,0.465,0.414,0.391,0.210,0.182,south,7.5,No
2016/04/08,18:50,0.450,0.259,0.470,0.414,0.390,0.210,0.182,south,6.4,No
2016/04/08,19:00,0.446,0.258,0.467,0.416,0.391,0.210,0.183,south,6.5,No
2016/04/08,19:10,0.450,0.259,0.467,0.412,0.389,0.211,0.183,south,6.3,No
2016/04/08,19:20,0.448,0.259,0.469,0.414,0.389,0.210,0.183,south,5.9,No
2016/04/08,19:30,0.448,0.259,0.465,0.414,0.392,0.209,0.183,south,6.0,No
2016/04/08,19:40,0.449,0.259,0.468,0.412,0.389,0.212,0.184,south,6.4,No
2016/04/08,19:50,0.447,0.258,0.467,0.415,0.389,0.210,0.183,south-southwest,6.4,No
2016/04/08,20:00,0.449,0.259,0.466,0.414,0.389,0.210,0.183,south,5.6,No
2016/04/08,20:10,0.447,0.259,0.469,0.415,0.389,0.211,0.182,south-southwest,5.6,No
2016/04/08,20:20,0.448,0.259,0.467,0.414,0.393,0.211,0.183,south,6.3,No
2016/04/08,20:30,0.448,0.259,0.469,0.412,0.390,0.210,0.184,south-southwest,6.1,No
2016/04/08,20:40,0.447,0.259,0.468,0.415,0.391,0.211,0.183,south,5.8,No
2016/04/08,20:50,0.449,0.258,0.466,0.413,0.389,0.210,0.183,south,5.6,No
2016/04/08,21:00,0.448,0.258,0.471,0.414,0.389,0.211,0.183,south,6.1,No
2016/04/08,21:10,0.446,0.260,0.466,0.416,0.390,0.212,0.183,south,5.5,No
2016/04/08,21:20,0.450,0.259,0.468,0.413,0.390,0.211,0.184,south-southwest,4.8,No
2016/04/08,21:30,0.447,0.258,0.467,0.415,0.389,0.211,0.183,south-southwest,5.4,No
2016/04/08,21:40,0.450,0.260,0.465,0.414,0.390,0.211,0.183,south-southwest,3.9,No
2016/04/08,21:50,0.448,0.259,0.469,0.415,0.388,0.211,0.182,south-southwest,3.8,No
2016/04/08,22:00,0.448,0.260,0.468,0.415,0.390,0.211,0.183,south-southwest,3.5,No
2016/04/08,22:10,0.448,0.259,0.468,0.413,0.391,0.211,0.183,south-southwest,4.0,No
2016/04/08,22:20,0.448,0.258,0.469,0.414,0.391,0.211,0.183,south-southwest,3.6,No
2016/04/08,22:30,0.449,0.259,0.467,0.416,0.390,0.210,0.183,south-southwest,2.9,No
2016/04/08,22:40,0.450,0.259,0.467,0.413,0.391,0.212,0.184,south-southwest,3.2,No
2016/04/08,22:50,0.447,0.258,0.468,0.414,0.390,0.211,0.184,south-southwest,2.8,No
2016/04/08,23:00,0.449,0.259,0.467,0.414,0.390,0.211,0.183,southwest,1.8,No
2016/04/08,23:10,0.449,0.259,0.468,0.413,0.392,0.211,0.183,south,2.5,No
2016/04/08,23:20,0.448,0.259,0.467,0.416,0.391,0.211,0.185,south-southwest,4.2,No
2016/04/08,23:30,0.450,0.259,0.466,0.414,0.391,0.210,0.183,south-southwest,5.0,No
2016/04/08,23:40,0.448,0.259,0.467,0.412,0.390,0.212,0.183,south,5.6,No
2016/04/08,23:50,0.449,0.259,0.470,0.416,0.390,0.211,0.184,south-southwest,4.7,No
